QIANFAN-26

Satellite information

Favourite Embed

Satellite Type and Status

PAYLOADIN ORBIT

Key statistics

Satellite QIANFAN-26 at a glance.

Uptime

265

Days in orbit

Revolutions

≈ 13.8

Per day

Orbit

LEO

Low Earth Orbit

Inclination

89.0

Latest

Satellite identification and parameters

Extended collection of information and parameters for QIANFAN-26.

Object identification

Identified? True

Debris? False

Object name: QIANFAN-26

International designator: 2024-185H

Object number (NORAD): 61559

Object ID (CCSDS): 61559

Country: PEOPLES REPUBLIC OF CHINA (PRC)

Current information (Y/N): Y

RCS size: LARGE

Orbital parameters

Period: 104.521 minutes

Inclination: 88.9831 deg

SMA: 7350.153 km

Apoapsis: 977.473 km

Periapsis: 966.563 km

RAAN: 96.9103 deg

Eccentricy: 0.0007422

Argument of periapsis: 117.4832 deg

Mean anomaly: 242.7089 deg

Mean motion: 13.77711232 rev/day

Mean motion (dot): 0.00000124 rev/day2

B* drag term: 0.00011107 1/REarth

Two-line elements (TLE)

Creation date: July 6, 2025, 10:46 p.m.

Reference frame: TEME

Reference center: EARTH

Epoch: July 6, 2025, 8:12 p.m. UTC

TLE line 0: 0 QIANFAN-26

TLE line 1: 1 61559U 24185H 25187.84226594 .00000124 00000-0 11107-3 0 9999

TLE line 2: 2 61559 88.9831 96.9103 0007422 117.4832 242.7089 13.77711232 46819

Live tracking on map

Real-time ground track for satellite QIANFAN-26.

In-orbit conjunctions

There are no conjunctions computed for QIANFAN-26, at the moment. Check back to stay up to date, as we update our databases every day.

Go to all conjunctions

Associated space launch

18 Low Earth Orbit communication satellites with Ku, Q and V band payloads for the G60 constellation operated by Shanghai Spacecom Satellite Technology (SSST) with funding backed by the Shanghai local government. Initial constellation will consist of 1296 satellites by 2027 with long term plans to expand it to 12000 satellites.

QIANFAN-26 was lifted into orbit during the mission ‘Long March 6A | G60 Polar Group 02’, on board a Long March 6A space rocket.

The launch took place on Oct. 15, 2024, 11:06 a.m. from Launch Complex 9A.

For more information about the launch, click the button.

Launch to space Long March 6A | G60 Polar Group 02
Long March 6A | G60 Polar Group 02

Agency: N/A

Status: Launch Successful

Launch date: Oct. 15, 2024, 11:06 a.m. UTC

Rocket: Long March 6A

Launch pad: Launch Complex 9A

Location: Taiyuan Satellite Launch Center, People's Republic of China

...

Latest news about this satellite

News about space launch
Launch Roundup: Europa Clipper launches, Starlink launches return

The Federal Aviation Administration’s (FAA) recent decision to clear SpaceX’s Falcon 9 for a return to all flights paved the way for a busy week of launches. Before Falcon 9 returned to flying regular Starlink missions, though, a Falcon Heavy launch with ...

News about space launch
China launches second batch of 18 satellites for Thousand Sails megaconstellation

MILAN — China successfully launched the second group of 18 satellites for the planned 14,000-satellite Thousand Sails megaconstellation Tuesday. A Long March 6A rocket lifted off from Taiyuan Satellite Launch […]


Newsletter sign-up

Weekly statistics, charts and insights to help you stay on top of the space industry.